Find OneWeb SL0279

NORAD ID: 48997 Int'l Des: 2021-060 Owner: ONEWEBN Country: UK Constellation: oneweb operational
LEOCIRCULARPOLARONEWEB_TYPE

当前视图

正在加载3D地球...

关于 OneWeb SL0279

正在加载描述...

即将过境

Passes for default location (London). Set your location on the main map for personalized predictions.

高度历史

Loading altitude history...

两行轨道根数

1 48997U 21060AG 26149.73050095 -.00000022 00000-0 -91797-4 0 9990
2 48997 87.9107 232.4366 0001857 94.0002 266.1342 13.16593525237199
Epoch: May 29, 2026 • Age: 19 hours

当前状态

高度 1199.8 km
速度 7.25 km/s
星下点 6.57°N, 25.73°W
发射日期 Jul 1, 2021
运行时间 4.9 years
类型 internet

技术详情

分类 Payload
质量 148.00 kg
干质量 140.00 kg
总质量 148.00 kg
长度 1.30 m
直径 1.00 m
跨度 5.00 m
形状 Trapezoid+2 pan
制造商 ONEWUS
平台类型 ARROW
阶段状态 In Orbit
所有者/国家 ONEWEBN/UK

Most Searched